Regional Weather Roundup
Issued by NWS

Home | Current Version | Previous Version | Text Only | Print | Product List | Glossary Off
Versions: 1 2 3 4 5 6 7 8 9 10 11 12 13 14 15 16 17 18 19 20 21 22 23 24 25 26 27 28 29 30 31 32 33 34 35 36 37 38 39 40 41 42 43 44 45 46 47 48 49 50

000
ASUS43 KMKX 200721
RWRWI

WISCONSIN REGIONAL WEATHER ROUNDUP
NATIONAL WEATHER SERVICE MILWAUKEE/SULLIVAN WI
200 AM CDT WED AUG 20 2014

NOTE: "FAIR" INDICATES FEW OR NO CLOUDS BELOW 12,000 FEET WITH NO
SIGNIFICANT WEATHER AND/OR OBSTRUCTIONS TO VISIBILITY.

WIZ001-002-006>008-014>016-023>028-200800-
NORTHWEST WISCONSIN

CITY           SKY/WX    TMP DP  RH WIND       PRES   REMARKS
SUPERIOR ARPT  CLOUDY    60  60  99 NE5       29.82S
ASHLAND        CLOUDY    60  58  92 N3        29.83S
HAYWARD        MOCLDY    59  59 100 NE5       29.82F
SIREN          FOG       59  59  98 CALM      29.81S VSB 1
RICE LAKE      FOG       61  59  95 CALM      29.83S VSB 1/2
LADYSMITH      PTCLDY    60  59  96 N5        29.83S
EAU CLAIRE     FOG       62  62 100 CALM      29.79S VSB 3/4
MENOMONIE      SUNNY     63  62  96 CALM      29.81R
NEW RICHMOND   FOG       61  61 100 CALM      29.81S VSB 3/4
OSCEOLA        CLEAR     62  62 100 CALM      29.83S
$$

WIZ003>005-009-010-017-018-200800-
NORTH CENTRAL WISCONSIN

CITY           SKY/WX    TMP DP  RH WIND       PRES   REMARKS
WOODRUFF       CLOUDY    59  56  90 N6        29.81R
RHINELANDER    CLOUDY    60  57  89 NW5       29.80S
EAGLE RIVER    CLOUDY    58  58  97 NW6       29.80R
LAND O LAKES   CLOUDY    58  57  97 NW6       29.81S
PHILLIPS       CLOUDY    59  58  96 NW5       29.81S
TOMAHAWK       PTCLDY    56  55  97 CALM      29.80S
MEDFORD        PTCLDY    59  59 100 N5        29.80S
MERRILL        CLEAR     58  58 100 NW3       29.80R
$$

WIZ029-030-035-036-043>047-200800-
CENTRAL WISCONSIN

CITY           SKY/WX    TMP DP  RH WIND       PRES   REMARKS
WAUSAU         CLEAR     61  60  97 W5        29.78S
MOSINEE        CLEAR     61  61 100 CALM      29.80S
MARSHFIELD     FOG       61  60  97 NW3       29.79S VSB 3/4
STEVENS POINT  CLEAR     58  58  99 CALM      29.80S
WAUPACA        PTCLDY    62  61  95 CALM      29.78S
WAUTOMA        CLEAR     59  59 100 CALM      29.79S
WISC RAPIDS    FOG       60  59  96 CALM      29.80S VSB 3/4
CAMP DOUGLAS   CLEAR     58  58 100 CALM      29.80S
$$

WIZ011>013-019>022-031-037>040-048>050-200800-
NORTHEAST WISCONSIN

CITY           SKY/WX    TMP DP  RH WIND       PRES   REMARKS
ANTIGO         CLOUDY    58  57  99 NW3       29.80R
STURGEON BAY   PTCLDY    63  59  88 NW3       29.76S
GREEN BAY      MOCLDY    62  61  96 W5        29.77R
MANITOWOC      CLEAR     64  63  96 W6        29.76S
APPLETON       PTCLDY    61  61 100 NW5       29.78S
CLINTONVILLE   CLEAR     61  61 100 CALM      29.78R
OSHKOSH        CLEAR     64  62  93 W6        29.78R
$$

WIZ032>034-041-042-053>061-200800-
SOUTHWEST WISCONSIN

CITY           SKY/WX    TMP DP  RH WIND       PRES   REMARKS
LA CROSSE      CLEAR     67  64  90 S3        29.79S
SPARTA         PTCLDY    59  58  96 CALM      29.81S
VIROQUA        FAIR      62  62 100 CALM      29.82S
BOSCOBEL       CLOUDY    66  63  90 CALM      29.80F
PRAIRIE DU CHI PTCLDY    65  63  91 CALM      29.80S
PLATTEVILLE    FAIR      65  63  93 S3        29.83R
$$

WIZ056-057-062-063-064-067-068-200800-
SOUTH CENTRAL WISCONSIN

CITY           SKY/WX    TMP DP  RH WIND       PRES   REMARKS
BARABOO/DELLS  CLEAR     62  60  93 CALM      29.80S FOG
LONE ROCK      MOCLDY    65  61  87 CALM      29.80S FOG
WATERTOWN      CLEAR     64  63  96 CALM      29.79S
MADISON        PTCLDY    65  61  87 CALM      29.80S
MIDDLETON      FAIR      63  63 100 CALM      29.81S
MONROE         CLEAR     68  63  83 W8        29.81S
JANESVILLE     CLEAR     66  63  88 CALM      29.80R
$$

WIZ051-052-058>065-066-070>072-200800-
SOUTHEAST WISCONSIN

CITY           SKY/WX    TMP DP  RH WIND       PRES   REMARKS
MILWAUKEE      CLEAR     69  63  81 W3        29.77S
WAUKESHA       CLEAR     63  61  94 W6        29.80S
MILWAUKEE/TIMM CLEAR     64  59  82 W3        29.78S
RACINE         CLEAR     67  64  90 W5        29.79S
BURLINGTON     CLEAR     61  61  99 SW5       29.79S
KENOSHA        MOCLDY    64  63  96 W5        29.79S
FOND DU LAC    CLEAR     63  60  90 CALM      29.78R
SHEBOYGAN      CLEAR     62  60  93 CALM      29.77R
WEST BEND      CLEAR     64  59  82 W5        29.78S
JUNEAU         CLEAR     64  37  37 CALM      29.80S
$$

LSZ147-162-200800-
LAKE SUPERIOR

STATION/POSITION TIME  TEMP    WIND        PRES    WAVE
                       AIR SEA DIR/SP/G            HT/PER
                 (UTC) (F)     (DEG/KT/KT) (MB)    (FT/S)
W MID LAKE BUOY  0650   58 56  320/  4/  4 1009.4S   1/ 4
DEVILS ISLAND    0700   60      CALM  /  1 1009.9F
PORT WING        0600   61     110/  4/  6 1010.2
SAXON HARBOR     0640   60      30/  5/  7 1009.8F
$$

LMZ867-665-643>646-200800-
LAKE MICHIGAN

STATION/POSITION TIME  TEMP    WIND        PRES    WAVE
                       AIR SEA DIR/SP/G            HT/PER
                 (UTC) (F)     (DEG/KT/KT) (MB)    (FT/S)
N MID LAKE BUOY  0650   62 62  300/  8/  8 1005.8F   1/ 5
NORTHPORT PIER   0600   65     330/ 10/ 13 1006.8S
SISTER BAY       0611   64     330/  7/  8   N/A
KEWAUNEE LAKESHO 0700   65     320/  1/  2 1006.9R
SHEBOYGAN LAKESH 0700   67 67  280/  6/  7 1007.9R
ATWATER BUOY     0700   70     260/  8     1009.2R
MILWAUKEE LAKESH 0700   70     280/  5/  7   N/A
S MID LAKE BUOY  0650   67 66  280/  6/  6 1007.7F   1
KENOSHA   LAKESH 0700   71     270/  6/  8 1008.1F
$$

TC  - TEMPERATURE IN CELSIUS
VSB - VISIBILITY IN STATUTE MILES
WCI - WIND CHILL INDEX
HX  - HEAT INDEX




USA.gov is the U.S. government's official web portal to all federal, state and local government web resources and services.